Zurück zum Katalog

CZ-6A DEB

AktivSSO
NORAD 54290·DEBRIS·🇨🇳 China

Gestartet Nov 11, 2022 von Taiyuan Satellite Launch Center

Loading…

Nächste Überflüge (nächste 24 Stunden)

TLE

AktuellSource: Space-Track

Epoche: Sep 14, 2026, 07:07 UTC

1 54290U 22151AH  26257.29665466  .00000232  00000-0  94800-4 0  9999
2 54290  98.5782 263.7432 0124668 151.3576 209.4531 14.32016058199961

Verfolge CZ-6A DEB in Echtzeit mit AllMySat

Download on the App Store